Weather History for GMTT - December, 2013

Change the Weather History Date:

Monday, December 30, 2013

  Actual Average Record
Temperature  
Mean Temperature 50 °F -  
Max Temperature 61 °F 60 °F 73 °F (2001)
Min Temperature 39 °F 44 °F 35 °F (2004)
Degree Days  
Heating Degree Days 15    
Moisture  
Dew Point 39 °F    
Average Humidity 72    
Maximum Humidity 93    
Minimum Humidity 37    
Precipitation  
Precipitation 0.00 in 0.14 in - ()
Sea Level Pressure  
Sea Level Pressure 30.37 in    
Wind  
Wind Speed 5 mph ()    
Max Wind Speed 10 mph    
Max Gust Speed -    
Visibility 5.9 miles    
Events      
Averages and records for this station are not official NWS values.
T = Trace of Precipitation, MM = Missing Value Source: Averaged Metar Reports

Daily Weather History Graph

Daily Weather History Graph

Search for Another Location

Airport or City:

Trip Planner

Search our weather history database for the weather conditions in past years. The results will help you decide how hot, cold, wet, or windy it might be!

Date:

Astronomy

Dec. 30, 2013 Rise Set
Actual Time 7:33 AM WET 5:19 PM WET
Civil Twilight 7:04 AM WET 5:47 PM WET
Nautical Twilight 6:32 AM WET 6:19 PM WET
Astronomical Twilight 6:01 AM WET 6:50 PM WET
Moon 5:09 AM WET 3:37 PM WET
Length of Visible Light 10h 43m
Length of Day
9h 46m
Waning Crescent, 6% of the Moon is Illuminated
Dec 30
Waning Crescent
Jan 1
New
Jan 8
First Quarter
Jan 16
Full
Jan 24
Last Quarter

Hourly Weather History & Observations

Time (WET) Temp. Windchill Dew Point Humidity Pressure Visibility Wind Dir Wind Speed Gust Speed Precip Events Conditions
12:00 AM 41 °F - 38 °F 86% 30.43 in 5 mi ESE 5.8 mph - -   Scattered Clouds
12:00 AM 41.0 °F 37.1 °F 39.2 °F 93% 30.42 in 5.0 mi ESE 5.8 mph - N/A   Partly Cloudy
12:30 AM 42.8 °F 37.5 °F 39.2 °F 87% 30.42 in 5.0 mi East 9.2 mph - N/A   Partly Cloudy
1:00 AM 41.0 °F - 37.4 °F 87% 30.42 in 6.2 mi Variable 2.3 mph - N/A   Partly Cloudy
1:30 AM 39.2 °F 37.0 °F 35.6 °F 87% 30.39 in 6.2 mi ESE 3.5 mph - N/A   Partly Cloudy
2:00 AM 41.0 °F 36.4 °F 37.4 °F 87% 30.42 in 6.2 mi ESE 6.9 mph - N/A   Unknown
2:30 AM 41.0 °F 35.8 °F 37.4 °F 87% 30.42 in 6.2 mi East 8.1 mph - N/A   Unknown
3:00 AM 43 °F - 38 °F 77% 30.41 in 6 mi East 9.2 mph - -  
3:00 AM 42.8 °F 37.5 °F 37.4 °F 81% 30.39 in 6.2 mi East 9.2 mph - N/A   Unknown
3:30 AM 42.8 °F 37.0 °F 37.4 °F 81% 30.39 in 6.2 mi East 10.4 mph - N/A   Unknown
4:00 AM 42.8 °F 37.5 °F 37.4 °F 81% 30.39 in 6.2 mi East 9.2 mph - N/A   Unknown
4:30 AM 42.8 °F 38.0 °F 37.4 °F 81% 30.39 in 6.2 mi East 8.1 mph - N/A   Unknown
5:00 AM 42.8 °F 38.0 °F 37.4 °F 81% 30.39 in 6.2 mi East 8.1 mph - N/A   Partly Cloudy
5:30 AM 41.0 °F - 35.6 °F 81% 30.39 in 6.2 mi Variable 2.3 mph - N/A   Partly Cloudy
6:00 AM 39 °F - 34 °F 76% 30.40 in 6 mi Calm Calm - -   Scattered Clouds
6:00 AM 39.2 °F - 33.8 °F 81% 30.39 in 6.2 mi Calm Calm - N/A   Partly Cloudy
6:30 AM 39.2 °F 34.2 °F 35.6 °F 87% 30.39 in 6.2 mi ESE 6.9 mph - N/A   Partly Cloudy
7:00 AM 39.2 °F - 35.6 °F 87% 30.39 in - Variable 1.2 mph - N/A   Clear
7:30 AM 39.2 °F 37.0 °F 35.6 °F 87% 30.39 in - East 3.5 mph - N/A   Clear
8:00 AM 39.2 °F - 33.8 °F 81% 30.42 in - Variable 2.3 mph - N/A   Clear
8:30 AM 39.2 °F 37.0 °F 35.6 °F 87% 30.42 in 5.0 mi ENE 3.5 mph - N/A   Scattered Clouds
9:00 AM 43 °F - 40 °F 83% 30.43 in 5 mi Calm Calm - -   Scattered Clouds
9:00 AM 42.8 °F - 39.2 °F 87% 30.42 in 5.0 mi Calm Calm - N/A   Scattered Clouds
9:30 AM 50.0 °F - 44.6 °F 82% 30.42 in 5.0 mi SE 3.5 mph - N/A   Scattered Clouds
10:00 AM 53.6 °F - 41.0 °F 62% 30.42 in 5.0 mi ESE 3.5 mph - N/A   Scattered Clouds
10:30 AM 57.2 °F - 42.8 °F 59% 30.42 in 5.0 mi Calm Calm - N/A   Mostly Cloudy
11:00 AM 57.2 °F - 42.8 °F 59% 30.42 in 5.0 mi NE 8.1 mph - N/A   Mostly Cloudy
11:30 AM 59.0 °F - 41.0 °F 51% 30.42 in 5.0 mi East 5.8 mph - N/A   Mostly Cloudy
12:00 PM 59 °F - 40 °F 37% 30.40 in 6 mi East 6.9 mph - -   Scattered Clouds
12:00 PM 59.0 °F - 39.2 °F 48% 30.39 in 6.2 mi East 6.9 mph - N/A   Mostly Cloudy
12:30 PM 60.8 °F - 39.2 °F 45% 30.39 in 6.2 mi ESE 6.9 mph - N/A   Mostly Cloudy
1:00 PM 60.8 °F - 41.0 °F 48% 30.36 in 6.2 mi ESE 4.6 mph - N/A   Mostly Cloudy
1:30 PM 60.8 °F - 39.2 °F 45% 30.33 in 6.2 mi East 4.6 mph - N/A   Mostly Cloudy
2:00 PM 60.8 °F - 41.0 °F 48% 30.33 in 6.2 mi ESE 3.5 mph - N/A   Mostly Cloudy
2:30 PM 60.8 °F - 42.8 °F 52% 30.30 in 6.2 mi East 6.9 mph - N/A   Mostly Cloudy
3:00 PM 60 °F - 44 °F 45% 30.33 in 6 mi ENE 9.2 mph - -   Scattered Clouds
3:00 PM 60.8 °F - 44.6 °F 55% 30.30 in 6.2 mi ENE 9.2 mph - N/A   Mostly Cloudy
3:30 PM 60.8 °F - 46.4 °F 59% 30.30 in 6.2 mi ENE 10.4 mph - N/A   Mostly Cloudy
4:00 PM 60.8 °F - 42.8 °F 52% 30.30 in 6.2 mi ENE 6.9 mph - N/A   Mostly Cloudy
4:30 PM 59.0 °F - 41.0 °F 51% 30.30 in 6.2 mi East 4.6 mph - N/A   Mostly Cloudy
5:00 PM 55.4 °F - 42.8 °F 63% 30.30 in 6.2 mi ENE 6.9 mph - N/A   Mostly Cloudy
5:30 PM 53.6 °F - 41.0 °F 62% 30.30 in 6.2 mi ENE 6.9 mph - N/A   Mostly Cloudy
6:00 PM 51 °F - 40 °F 57% 30.33 in 6 mi East 1.2 mph - -   Scattered Clouds
6:00 PM 51.8 °F - 41.0 °F 67% 30.30 in 6.2 mi Variable 1.2 mph - N/A   Mostly Cloudy
6:30 PM 48.2 °F - 39.2 °F 71% 30.33 in 6.2 mi East 3.5 mph - N/A   Mostly Cloudy
7:00 PM 46.4 °F - 39.2 °F 76% 30.33 in 6.2 mi ENE 2.3 mph - N/A   Mostly Cloudy
7:30 PM 46.4 °F 44.3 °F 41.0 °F 81% 30.33 in 6.2 mi ESE 4.6 mph - N/A   Mostly Cloudy
8:00 PM 46.4 °F 43.5 °F 41.0 °F 81% 30.33 in 6.2 mi East 5.8 mph - N/A   Mostly Cloudy
8:30 PM 44.6 °F 41.4 °F 39.2 °F 81% 30.33 in 6.2 mi East 5.8 mph - N/A   Mostly Cloudy
9:00 PM 44 °F - 39 °F 77% 30.34 in 6 mi East 3.5 mph - -   Scattered Clouds
9:00 PM 44.6 °F 43.1 °F 39.2 °F 81% 30.33 in 6.2 mi East 3.5 mph - N/A   Mostly Cloudy
9:30 PM 44.6 °F 41.4 °F 39.2 °F 81% 30.33 in 6.2 mi East 5.8 mph - N/A   Mostly Cloudy
10:00 PM 44.6 °F 40.7 °F 41.0 °F 87% 30.33 in 6.2 mi East 6.9 mph - N/A   Mostly Cloudy
10:30 PM 44.6 °F 42.2 °F 39.2 °F 81% 30.33 in 6.2 mi NE 4.6 mph - N/A   Mostly Cloudy
11:00 PM 42.8 °F 40.1 °F 37.4 °F 81% 30.33 in 6.2 mi ENE 4.6 mph - N/A   Scattered Clouds
11:30 PM 42.8 °F 41.1 °F 37.4 °F 81% 30.33 in 6.2 mi ENE 3.5 mph - N/A   Scattered Clouds